Jackson, MN

12:14 AM CDT on August 23, 2017 (GMT -0500)
Jackson Municipal

Weather History for KMJQ - October, 2013

Change the Weather History Date:

Wednesday, October 16, 2013

  Actual Average Record
Temperature  
Mean Temperature 44 °F -  
Max Temperature 53 °F 57 °F 78 °F (1996)
Min Temperature 35 °F 36 °F 26 °F (2001)
Degree Days  
Heating Degree Days 21    
Moisture  
Dew Point 36 °F    
Average Humidity 74    
Maximum Humidity 93    
Minimum Humidity 35    
Precipitation  
Precipitation 0.01 in - - ()
Sea Level Pressure  
Sea Level Pressure 29.95 in    
Wind  
Wind Speed 11 mph (WNW)    
Max Wind Speed 16 mph    
Max Gust Speed 24 mph    
Visibility 9 miles    
Events      
Averages and records for this station are not official NWS values.
T = Trace of Precipitation, MM = Missing Value Source: NWS Daily Summary

Daily Weather History Graph

Daily Weather History Graph

Search for Another Location

Airport or City:

Trip Planner

Search our weather history database for the weather conditions in past years. The results will help you decide how hot, cold, wet, or windy it might be!

Date:

Astronomy

Oct. 16, 2013 Rise Set
Actual Time 7:35 AM CDT 6:34 PM CDT
Civil Twilight 7:06 AM CDT 7:03 PM CDT
Nautical Twilight 6:33 AM CDT 7:36 PM CDT
Astronomical Twilight 6:00 AM CDT 8:09 PM CDT
Moon 5:17 PM CDT (10/16) 5:00 AM CDT (10/16)
Length of Visible Light 11h 56m
Length of Day
10h 58m
Waxing Gibbous, 94% of the Moon is Illuminated
Oct 16
Waxing Gibbous
Oct 18
Full
Oct 26
Last Quarter
Nov 3
New
Nov 9
First Quarter

Hourly Weather History & Observations

Time (CDT) Temp. Windchill Dew Point Humidity Pressure Visibility Wind Dir Wind Speed Gust Speed Precip Events Conditions
12:13 AM 44.6 °F 38.1 °F 41.0 °F 87% 29.92 in 7.0 mi NW 13.8 mph 23.0 mph N/A   Overcast
12:34 AM 42.8 °F 35.8 °F 41.0 °F 93% 29.92 in 3.0 mi NW 13.8 mph 21.9 mph N/A   Light Drizzle
12:53 AM 42.8 °F 36.2 °F 41.0 °F 93% 29.93 in 3.0 mi NW 12.7 mph - N/A   Overcast
1:13 AM 42.8 °F 36.2 °F 41.0 °F 93% 29.93 in 3.0 mi NW 12.7 mph 20.7 mph N/A   Overcast
1:34 AM 42.8 °F 35.8 °F 41.0 °F 93% 29.94 in 3.0 mi NW 13.8 mph - N/A   Overcast
1:53 AM 42.8 °F 35.8 °F 41.0 °F 93% 29.94 in 3.0 mi NW 13.8 mph 20.7 mph N/A   Overcast
2:13 AM 42.8 °F 35.4 °F 41.0 °F 93% 29.94 in 3.0 mi NW 15.0 mph 19.6 mph N/A   Overcast
2:34 AM 42.8 °F 35.8 °F 41.0 °F 93% 29.94 in 4.0 mi NW 13.8 mph 24.2 mph N/A   Overcast
2:53 AM 42.8 °F 35.8 °F 41.0 °F 93% 29.94 in 4.0 mi NW 13.8 mph - N/A   Overcast
3:13 AM 42.8 °F 35.1 °F 41.0 °F 93% 29.94 in 5.0 mi NNW 16.1 mph 21.9 mph N/A   Overcast
3:33 AM 42.8 °F 35.8 °F 39.2 °F 87% 29.94 in 4.0 mi NW 13.8 mph 19.6 mph N/A   Overcast
3:54 AM 42.8 °F 35.1 °F 39.2 °F 87% 29.95 in 4.0 mi NW 16.1 mph 19.6 mph N/A   Overcast
4:13 AM 42.8 °F 35.8 °F 39.2 °F 87% 29.95 in 4.0 mi NW 13.8 mph 18.4 mph N/A   Drizzle
4:33 AM 42.8 °F 35.1 °F 39.2 °F 87% 29.95 in 7.0 mi NNW 16.1 mph 19.6 mph N/A   Overcast
4:54 AM 42.8 °F 35.8 °F 39.2 °F 87% 29.95 in 7.0 mi NW 13.8 mph 18.4 mph N/A   Light Drizzle
5:13 AM 42.8 °F 35.8 °F 39.2 °F 87% 29.96 in 10.0 mi NW 13.8 mph - N/A   Overcast
5:33 AM 42.8 °F 36.2 °F 37.4 °F 81% 29.96 in 10.0 mi NW 12.7 mph 20.7 mph N/A   Overcast
5:52 AM 41.0 °F 33.9 °F 37.4 °F 87% 29.96 in 10.0 mi NW 12.7 mph 19.6 mph N/A   Light Drizzle
6:13 AM 41.0 °F 34.3 °F 37.4 °F 87% 29.96 in 10.0 mi NW 11.5 mph - N/A   Overcast
6:33 AM 41.0 °F 34.3 °F 37.4 °F 87% 29.97 in 10.0 mi NW 11.5 mph 18.4 mph N/A   Overcast
6:53 AM 41.0 °F 34.7 °F 37.4 °F 87% 29.97 in 10.0 mi NW 10.4 mph - N/A   Overcast
7:13 AM 41.0 °F 33.9 °F 37.4 °F 87% 29.97 in 10.0 mi NW 12.7 mph 18.4 mph N/A   Overcast
7:33 AM 41.0 °F 34.7 °F 37.4 °F 87% 29.97 in 10.0 mi WNW 10.4 mph - N/A   Overcast
7:54 AM 41.0 °F 35.2 °F 37.4 °F 87% 29.98 in 10.0 mi NW 9.2 mph - N/A   Overcast
8:13 AM 41.0 °F 35.2 °F 37.4 °F 87% 29.98 in 10.0 mi NW 9.2 mph - N/A   Overcast
8:33 AM 41.0 °F 35.8 °F 37.4 °F 87% 29.98 in 10.0 mi NW 8.1 mph - N/A   Overcast
8:54 AM 41.0 °F 34.7 °F 37.4 °F 87% 29.99 in 10.0 mi NW 10.4 mph - N/A   Overcast
9:13 AM 42.8 °F 36.6 °F 37.4 °F 81% 29.99 in 10.0 mi WNW 11.5 mph - N/A   Overcast
9:34 AM 41.0 °F 34.3 °F 35.6 °F 81% 30.00 in 10.0 mi NW 11.5 mph - N/A   Overcast
9:53 AM 41.0 °F 34.7 °F 35.6 °F 81% 30.00 in 10.0 mi NW 10.4 mph - N/A   Overcast
10:13 AM 42.8 °F 36.6 °F 37.4 °F 81% 30.01 in 10.0 mi WNW 11.5 mph - N/A   Mostly Cloudy
10:34 AM 42.8 °F 37.0 °F 37.4 °F 81% 30.01 in 10.0 mi NW 10.4 mph - N/A   Overcast
10:53 AM 44.6 °F 39.2 °F 37.4 °F 76% 30.00 in 10.0 mi NW 10.4 mph - N/A   Mostly Cloudy
11:13 AM 44.6 °F 39.2 °F 37.4 °F 76% 30.00 in 10.0 mi NW 10.4 mph - 0.01 in   Scattered Clouds
11:34 AM 44.6 °F 40.7 °F 35.6 °F 71% 30.00 in 10.0 mi NNW 6.9 mph - 0.01 in   Mostly Cloudy
11:53 AM 46.4 °F 42.4 °F 35.6 °F 66% 30.00 in 10.0 mi WNW 8.1 mph 17.3 mph 0.01 in   Overcast
12:13 PM 46.4 °F 41.5 °F 35.6 °F 66% 30.00 in 10.0 mi NW 10.4 mph - N/A   Overcast
12:34 PM 46.4 °F 41.9 °F 35.6 °F 66% 30.00 in 10.0 mi NW 9.2 mph - N/A   Overcast
12:53 PM 46.4 °F 41.5 °F 35.6 °F 66% 30.00 in 10.0 mi WNW 10.4 mph - N/A   Overcast
1:13 PM 46.4 °F 43.5 °F 35.6 °F 66% 29.99 in 10.0 mi NW 5.8 mph - N/A   Overcast
1:34 PM 48.2 °F - 35.6 °F 62% 29.98 in 10.0 mi WNW 6.9 mph - N/A   Mostly Cloudy
1:53 PM 50.0 °F - 35.6 °F 58% 29.97 in 10.0 mi WNW 6.9 mph 19.6 mph N/A   Mostly Cloudy
2:13 PM 50.0 °F - 35.6 °F 58% 29.96 in 10.0 mi WSW 9.2 mph 16.1 mph N/A   Overcast
2:33 PM 51.8 °F - 33.8 °F 50% 29.96 in 10.0 mi NW 10.4 mph - N/A   Scattered Clouds
2:53 PM 51.8 °F - 32.0 °F 47% 29.95 in 10.0 mi WNW 5.8 mph 12.7 mph N/A   Clear
3:13 PM 53.6 °F - 30.2 °F 41% 29.95 in 10.0 mi WNW 8.1 mph - N/A   Clear
3:33 PM 53.6 °F - 30.2 °F 41% 29.95 in 10.0 mi West 8.1 mph - N/A   Clear
3:53 PM 53.6 °F - 26.6 °F 35% 29.94 in 10.0 mi West 6.9 mph - N/A   Clear
4:14 PM 53.6 °F - 30.2 °F 41% 29.94 in 10.0 mi West 10.4 mph - N/A   Clear
4:33 PM 53.6 °F - 30.2 °F 41% 29.94 in 10.0 mi West 11.5 mph - N/A   Clear
4:53 PM 53.6 °F - 30.2 °F 41% 29.93 in 10.0 mi WNW 10.4 mph - N/A   Clear
5:13 PM 53.6 °F - 30.2 °F 41% 29.93 in 10.0 mi WNW 10.4 mph - N/A   Clear
5:33 PM 51.8 °F - 32.0 °F 47% 29.93 in 10.0 mi WNW 10.4 mph - N/A   Clear
5:54 PM 51.8 °F - 32.0 °F 47% 29.92 in 10.0 mi WNW 4.6 mph - N/A   Clear
6:13 PM 50.0 °F - 33.8 °F 54% 29.92 in 10.0 mi WNW 5.8 mph - N/A   Clear
6:34 PM 46.4 °F - 33.8 °F 62% 29.92 in 10.0 mi Calm Calm - N/A   Clear
6:53 PM 44.6 °F - 33.8 °F 66% 29.92 in 10.0 mi Calm Calm - N/A   Clear
7:13 PM 44.6 °F 43.1 °F 33.8 °F 66% 29.93 in 10.0 mi SW 3.5 mph - N/A   Clear
7:33 PM 42.8 °F 41.1 °F 33.8 °F 70% 29.93 in 10.0 mi SSW 3.5 mph - N/A   Clear
7:53 PM 42.8 °F 40.1 °F 33.8 °F 70% 29.93 in 10.0 mi SSW 4.6 mph - N/A   Clear
8:13 PM 41.0 °F 39.0 °F 33.8 °F 76% 29.93 in 10.0 mi SW 3.5 mph - N/A   Clear
8:33 PM 41.0 °F - 33.8 °F 76% 29.93 in 10.0 mi Calm Calm - N/A   Clear
8:53 PM 41.0 °F - 33.8 °F 76% 29.92 in 10.0 mi Calm Calm - N/A   Clear
9:14 PM 41.0 °F - 33.8 °F 76% 29.92 in 10.0 mi Calm Calm - N/A   Clear
9:33 PM 39.2 °F 35.9 °F 33.8 °F 81% 29.92 in 10.0 mi WSW 4.6 mph - N/A   Clear
9:53 PM 39.2 °F 37.0 °F 33.8 °F 81% 29.92 in 10.0 mi WSW 3.5 mph - N/A   Clear
10:13 PM 39.2 °F 37.0 °F 33.8 °F 81% 29.92 in 10.0 mi SW 3.5 mph - N/A   Clear
10:33 PM 37.4 °F 34.9 °F 32.0 °F 81% 29.92 in 10.0 mi SW 3.5 mph - N/A   Clear
10:53 PM 37.4 °F 33.8 °F 32.0 °F 81% 29.92 in 10.0 mi SSW 4.6 mph - N/A   Clear
11:13 PM 37.4 °F 33.8 °F 32.0 °F 81% 29.92 in 10.0 mi SSW 4.6 mph - N/A   Clear
11:33 PM 35.6 °F 30.7 °F 32.0 °F 87% 29.92 in 10.0 mi SSW 5.8 mph - N/A   Clear
11:53 PM 35.6 °F 31.7 °F 32.0 °F 87% 29.92 in 10.0 mi SSW 4.6 mph - N/A   Clear